AirNav   ProFlight Series 2 Aviation Headset
 
 1249 users online  

4N1 Greenwood Lake Airport
West Milford, New Jersey, USA

GOING TO WEST MILFORD?


FAA INFORMATION EFFECTIVE 16 JULY 2020

Location

FAA Identifier: 4N1
Lat/Long: 41-07-42.2000N 074-20-47.5000W
41-07.703333N 074-20.791667W
41.1283889,-74.3465278
(estimated)
Elevation: 789.6 ft. / 240.7 m (surveyed)
Variation: 13W (1995)
From city: 1 mile E of WEST MILFORD, NJ
Time zone: UTC -4 (UTC -5 during Standard Time)
Zip code: 07480

Airport Operations

Airport use: Open to the public
Activation date: 06/1960
Control tower: no
ARTCC: NEW YORK CENTER
FSS: MILLVILLE FLIGHT SERVICE STATION
NOTAMs facility: MIV (NOTAM-D service available)
Attendance: 0800-1700
Wind indicator: lighted
Segmented circle: no
Lights: ACTVT MIRL RY 06/24 - CTAF.
Beacon: white-green (lighted land airport)
Operates sunset to sunrise.

Airport Communications

CTAF: 122.9
NEW YORK APPROACH: 127.6
NEW YORK DEPARTURE: 127.6
WX ASOS at FWN (13 nm W): 118.525 (973-875-0859)
WX ASOS at CDW (15 nm S): 135.5 (973-575-4417)
WX ASOS at 12N (19 nm W): PHONE 917-786-7221
WX AWOS-3 at MMU (20 nm S): PHONE 973-290-0135

Nearby radio navigation aids

VOR radial/distance  VOR name  Freq  Var
SAXr078/9.4SPARTA VORTAC115.7011W
HUOr158/20.2HUGUENOT VOR/DME116.1011W
TEBr334/21.2TETERBORO VOR/DME108.4011W
STWr082/24.9STILLWATER VOR/DME109.6011W
BWZr058/29.3BROADWAY VOR/DME114.2011W
LGAr326/29.9LA GUARDIA VOR/DME113.1012W
CMKr267/35.7CARMEL VOR/DME116.6012W
CRIr337/37.1CANARSIE VOR/DME112.3011W
SBJr039/37.3SOLBERG VOR/DME112.9010W
JFKr331/39.6KENNEDY VOR/DME115.9012W
IGNr228/39.9KINGSTON VOR/DME117.6012W

 
NDB name  Hdg/Dist  Freq  Var  ID
CHATHAM022/23.625413WCAT -.-. .- -
STANWYCK222/27.626112WSKU ... -.- ..-

Airport Services

Fuel available: 100LL JET-A
Parking: tiedowns
Airframe service: MAJOR
Powerplant service: MAJOR
Bottled oxygen: NONE
Bulk oxygen: NONE

Runway Information

Runway 6/24

Dimensions: 3471 x 60 ft. / 1058 x 18 m
Surface: asphalt, in fair condition
Runway edge lights: medium intensity
RUNWAY 6  RUNWAY 24
Latitude: 41-07.510958N41-07.894688N
Longitude: 074-21.072025W074-20.511670W
Elevation: 789.3 ft.789.4 ft.
Traffic pattern: rightleft
Runway heading: 061 magnetic, 048 true241 magnetic, 228 true
Markings: nonprecision, in good conditionnonprecision, in good condition
Visual slope indicator: 2-light PAPI on left (3.50 degrees glide path)
PAPI OPERATES CONTINUOUSLY.
Runway end identifier lights: nono
Touchdown point: yes, no lightsyes, no lights
Obstructions: 192 ft. trees, 1988 ft. from runway, 170 ft. right of centerline, 9:1 slope to clear
TREES BELOW RWY END, CLIFF.
23 ft. tree, 680 ft. from runway, 132 ft. left of centerline, 20:1 slope to clear

Airport Ownership and Management from official FAA records

Ownership: Publicly-owned
Owner: N.J. DEPT. TRANSPORTATION
1035 PARKWAY AVE. P.O. BOX 610, PO BOX 600
TRENTON, NJ 08625
Phone 609-530-2900
Manager: TIM WAGNER
126A AIRPORT RD BOX 1
WEST MILFORD, NJ 07480
Phone 973-728-7721

Airport Operational Statistics

Aircraft based on the field: 40
Single engine airplanes: 39
Multi engine airplanes: 1
    
Aircraft operations: avg 42/day *
74% local general aviation
26% transient general aviation
* for 12-month period ending 28 February 2019

Additional Remarks

RY 06/24 STEEP ROCK LEDGES LCTD JUST BYD BOTH RY ENDS.
ARPT SUBJECT TO GUSTING WIND & FREQUENT CROSSWINDS.
SOME RY AND TY LGTS TALLER THAN STANDARD.
GCO AVBL ON FREQ 121.725.
DEER AND BIRDS ON AND INVOF ARPT.
FOR CD IF UNA ON GCO, CTC NEW YORK APCH AT 800-645-3206.

Instrument Procedures

NOTE: All procedures below are presented as PDF files. If you need a reader for these files, you should download the free Adobe Reader.

NOT FOR NAVIGATION. Please procure official charts for flight.
FAA instrument procedures published for use from 16 July 2020 at 0901Z to 13 August 2020 at 0900Z.

 
IAPs - Instrument Approach Procedures
RNAV (GPS) RWY 06 **CHANGED**   download (213KB)
RNAV (GPS) RWY 24 **CHANGED**   download (225KB)
NOTE: Special Take-Off Minimums/Departure Procedures apply   download (150KB)

Other nearby airports with instrument procedures:

N07 - Lincoln Park Airport (11 nm S)
KFWN - Sussex Airport (13 nm W)
KCDW - Essex County Airport (15 nm S)
06N - Randall Airport (18 nm N)
12N - Aeroflex-Andover Airport (19 nm W)
KMMU - Morristown Municipal Airport (20 nm S)
 
Loc | Ops | Rwys | IFR | FBO | Links
Com | Nav | Svcs | Stats | Notes
Area around 4N1 (Greenwood Lake Airport)
 
Road maps at: MapQuest Bing Google
 
Aerial photo
WARNING: Photo may not be current or correct
Aerial photo of 4N1 (Greenwood Lake Airport)
Photo by Wendy Silcox McPherson
Photo taken 17-Nov-2012
looking south.

Do you have a better or more recent aerial photo of Greenwood Lake Airport that you would like to share? If so, please send us your photo.

 
Sectional chart

 
Airport distance calculator
Flying to Greenwood Lake Airport? Find the distance to fly.

From to 4N1

Sunrise and sunset
Times for 12-Aug-2020
 Local
(UTC-4)
 Zulu
(UTC)
Morning civil twilight05:3609:36
Sunrise06:0610:06
Sunset19:5923:59
Evening civil twilight20:2800:28

Current date and time
Zulu (UTC)  12-Aug-2020 23:43:26
Local (UTC-4)  12-Aug-2020 19:43:26
 
METAR
KFWN 
14nm W 
122253Z AUTO 35003KT 10SM CLR 29/21 A3003 RMK AO2 SLP165 T02940206
KCDW 
15nm S 
122253Z 15005KT 10SM CLR 30/21 A3002 RMK AO2 SLP167 T03000211
K12N 
19nm W 
122254Z AUTO 00000KT 29/22 A3004 RMK AO1 SLP162 T02940217
KTEB 
21nm SE 
122251Z 21008KT 10SM FEW047 SCT060 29/22 A2999 RMK AO2 SLP155 T02890222
KMMU 
21nm S 
122245Z 13004KT 10SM FEW050 29/24 A3002
KMGJ 
24nm N 
SuperAWOS
122254Z AUTO 35003KT 10SM CLR 30/21 A3002 RMK AO2 SLP162 T03000206
KSWF 
25nm NE 
122245Z 29004KT 10SM SCT040 30/21 A3003
KNYC 
27nm SE 
122251Z AUTO 00000KT 6SM BR 26/24 A3004 RMK AO2 SLP163 T02610244 $
TAF
KTEB 
21nm SE 
122111Z 1221/1324 22005KT P6SM VCTS SCT050CB BKN060 FM122300 35006KT P6SM BKN040 FM130200 VRB04KT P6SM SCT025 BKN040 TEMPO 1308/1312 BKN025 FM131200 35005KT P6SM VCSH SCT025 BKN040 FM131800 07004KT P6SM OVC100 PROB30 1318/1322 5SM SHRA OVC100
KSWF 
25nm NE 
121729Z 1218/1324 31006KT P6SM SHRA VCTS BKN040CB FM130000 VRB03KT P6SM BKN040 FM131200 35005KT P6SM VCSH SCT025 BKN040 AMD NOT SKED
NOTAMs
Click for the latest NOTAMs
NOTAMs are issued by the DoD/FAA and will open in a separate window not controlled by AirNav.

 

 
 

FBO, Fuel Providers, and Aircraft Ground Support

  
 Business Name 
 
 Contact 
 
 Services / Description 
 
Fuel Prices
 
Comments
  
Greenwood Lake Airport Management 973-728-7721
[web site]
[email]
Airport management, Aviation fuel, Aircraft ground handling, Aircraft parking (ramp or tiedown), Hangars, Hangar leasing / sales, Passenger terminal and lounge, ...

More info about Greenwood Lake Airport Management
Phillips 66
100LL Jet A
FS $4.79 $5.49 
SS $4.49 $5.49 
 Updated 12-Aug-2020
  no comments
FS=Full service
SS=Self service
Update Fuel Prices
 

Would you like to see your business listed on this page?

 If your business provides an interesting product or service to pilots, flight crews, aircraft, or users of the Greenwood Lake Airport, you should consider listing it here.  To start the listing process, click on the button below
 
Add a business
 

Other Pages about Greenwood Lake Airport

Update a link
 
Copyright © AirNav, LLC. All rights reserved. Privacy Policy  Contact